Location: ?astrovice
(49.6513°N, 14.9287°E)
Time: 06:12:50
(UTC+00:00)

STARLINK-1217 - Pass Details

Date: 09 April 2020
Orbit: 378 x 381 km, 53.0° (Epoch: 02 June)

Event Time Altitude Azimuth Distance (km) Brightness Sun altitude
Rises 18:08:41 0° 292° (WNW) 2,267 9.7 -4.5°
Reaches altitude 10° 18:10:45 10° 293° (WNW) 1,410 7.6 -4.9°
Maximum altitude 18:13:54 81° 22° (NNE) 393 2.9 -5.4°
Drops below altitude 10° 18:17:02 10° 109° (ESE) 1,402 5.0 -5.8°
Enters shadow 18:17:26 - 110° (ESE) 1,565 5.2 -5.9°
